THOR AGENA B DEB, 1948

Orbit data source: Space-Track

THOR AGENA B DEB, 1948 is space debris in LEO originally from a launch on Mon, 29 Nov 1965 UTC launched from the Air Force Western Test Range (AFWTR). Debris objects in space refer to the collection of defunct objects orbiting the Earth. Examples of debris include non-operational satellites, rocket bodies, and fragments generated from explosions, collisions, or faulty payload assembly.

Loading next visibility...
Identifier
1948, 1965-098F
Orbit
LEO
Country
Flag of USUS
Related business
Manufacturer
Unknown
Mission
Spacecraft
Bus & Motor
Unknown
Mass
~1 kg wet, ~1 kg dry
Launch date (UTC)
1965-11-29 (60 years ago)
Launch vehicle
Unknown
Launch site
Air Force Western Test Range (AFWTR)
Object type
Payload
Rocket body
Debris
Shape & HBR
Half Cyl + Cone, 0.8 m
Radar Cross Section
0.531 m², Medium (>0.1 m² and < 1m²)

Expand to show TLE details & history
Last TLE update: 11 hours ago

TLE from 11 hours ago
0 THOR AGENA B DEB
1 01948U 65098F   25242.89852866  .00007536  00000-0  14110-2 0  9997
2 01948  79.8463 220.3126 0762907 262.8310  88.5569 13.57701523769726
Epoch: 2025-08-30T21:33Z
TLE epoch observation values (Epoch: 2025-08-30T21:33:52.876Z)
Latitude
0.00001°
Longitude
-82.48393°
Altitude
1,075.724 km
Speed
7.3 km/s
True Right ascension
14h 41m 15s
True Declination
0° 00' 00"
Sunlit
Object was in daylight at epoch
Visualization orbit readout
Latitude
Unknown
Longitude
Unknown
Altitude
Unknown
Speed
Unknown
Apparent Right ascension
Unknown
Apparent Declination
Unknown
Sunlit
N/A
Visualization observer readout
Local Sidereal Time
00:10:29
Azimuth
Unknown
Elevation
Unknown
Doppler factor
Unknown
Orbital elements
Apogee altitude
1,607.386 km
Perigee altitude
475.311 km
Semi-major axis
7,419.485 km
Eccentricity
0.07629
Inclination
79.8463°
RAAN
220.3126°
Arg. of periapsis
262.831°
True anomaly
97.28357°
Mean anomaly
88.5569°
Eccentric anomaly
92.92235°
Mean motion
3.39612 °/min
Orbital period
106 mins
BSTAR
0.001411
Loading maneuver chart data...
Computing Atmospheric mass density...
Loading historical data...
Loading historical data...
Loading historical data...
Loading historical data...
Loading historical data...
Loading historical data...
Loading historical data...

Documentation

Showing up to 5 results
|